Málaga

Airport
ICAO code: 
LEMG
Summary
ICAO Region: 
EUR
Territory: 
Location: 
Málaga,
Coordinates: 
Aerial View: 
36° 40' 29.64" N, 4° 29' 56.797" W
Metar
Observation
LEMG 170030Z VRB02KT 9999 FEW005 18/14 Q1019 NOSIG
Station
Malaga / Aeropuerto
Date/Time
2022-05-17 00:30:00
Wind speed
02 kts
Lowest cloud amount
few clouds
Temperature
18°C
Dew point
14°C
Humidity
77%
QNH
1019 hPa
Weather condition
n/a

Description

Málaga Airport, also known as Pablo Ruiz Picasso Airport, is an important airport for Spanish tourism as it is the main international airport for the Costa Del Sol. It is 8 km southwest of Málaga and 5 km north of Torremolinos.

Climatology

Dry-summer subtropical ”Mediterranean" climate (Köppen climate classification Csa) - characterized by hot, dry summers and mild winters. During the summer, subtropical high pressure cells dominate, making rainfall unlikely except for the occasional thunderstorm. In the winter, periodic storms bring rain.

Runways

Designator Length Width Surface Rops
12/30 2750 45 ASPHALT Yes/Yes
13/31 3200 45 ASP Yes/Yes
Airport map: 
Aerial View: 

SKYbrary Partners:

Safety knowledge contributed by: